Погода Игнасино

Погода Игнасино : погода сейчас, прогноз погоды и архив. Всё, что Вы хотите узнать о погоде Игнасино!

Хотите узнать прогноз погоды Игнасино? Тогда Вам сюда: Погода Игнасино

Поиск расширенной информации на нашем сайте:

Полезная информация: Свежая информация наращивание волос на трессах цена у нас.

Другие новости

Новости СМИ2

Главная страница сайта

Новости сайта

02.10.2013

Напоминаем, что на нашем новом сайте вы можете получить высокодетализированные прогнозы погоды по пунктам России, СНГ и мира (включающие важные для авиации метеовеличины, такие как направление и скорость ветра, видимость, явления погоды, количество и форма облачности, нижняя и верхняя граница облачности), а также ознакомиться с разнообразными материалами по авиационной метеорологии и подборкой полезных ссылок на эту тему.

Сайт Метеоцентр.Азия посвящён разработке технологий оптимизации авиаметеорологического обслуживания, включая проектирование и перспективное создание нескольких автоматизированных авиаметеорологических систем:
- система выпуска высокодетальных прогностических карт явлений погоды для нижнего воздушного пространства по России и ближнему зарубежью;
- система верификации прогнозов TAF (выпускаемых синоптиками официальных АМСГ РФ и ближнего зарубежья) и AUTOTAF (выпускаемых сайтом Метеоцентр.Азия) - выявление ошибок, онлайн-сопоставление с фактической погодой METAR, автоматическое внесение коррективов в прогнозы при резком отклонении фактической погоды от прогноза, подсчёт оправдываемости прогнозов по элементам и в целом;
- система обработки, анализа и отображения авиаметеорологической информации для применения провайдерами метеорологической информации.

Рекомендуем: Нижнее белье для полных красивое женское нижнее белье.

Погода Игнасино - сегодня

Время (UTC), дата Ветер
(°,м/с) 
Видим.   Явления Облачность Т
(°С)
Тd
(°С)
f(%) Тe
(°С)
Pmin
(гПа)
dP
(гПа)
Po
(мм)
O2
(г/м3)
Тmin Tmax R s Состояние
почвы
12 22.03.17 310 (СЗ) 3{11}  20000 м    ясно 
-0.5 -10.4 47 -2  1025.4  1.6  741  300           
15 22.03.17 340 (С) 20000 м    ясно 
-6.7 -10.6 74 -6  1027.3  742  308           
18 22.03.17 010 (С) 20000 м    ясно 
-11.3 -12.8 89 -11  1029  743  313           
21 22.03.17 тихо ()   20000 м    ясно 
-14.1 -15.4 90 -14  1030.3  0.8  743  317           
00 23.03.17 180 (Ю) 20000 м    ясно 
-8.6 -11.9 77 -8  1030.3  0.8  744  311  -15.3         
03 23.03.17 290 (З) 20000 м    ясно 
+0.9 -10.6 42 -1  1027.8  -1.1  743  299           
06 23.03.17 270 (З) 20000 м    3/3 1000 м 
[Cu hum]
+4.5 -11.2 31 +3  1024.4  -2.7  741  295           
09 23.03.17 020 (С) 20000 м    ясно 
+4.8 -13.1 26 +4  1023.4  -1  740  294           
12 23.03.17 340 (С) 20000 м    ясно 
-3 -10.8 55 -4  1025.8  1.3  741  303    +5.8       
15 23.03.17 360 (С) 20000 м    ясно 
-7.3 -11.3 73 -7  1027.1  0.7  742  308           
18 23.03.17 360 (С) 20000 м    ясно 
-11.2 -12.9 87 -13  1027.9  0.2  742  313           
21 23.03.17 360 (С) 20000 м    ясно 
-14 -15.3 90 -14  1028.5  0.1  742  317           
00 24.03.17 260 (З) 20000 м    1/0 верхняя 
[Ci fib]
-8.8 -12.1 77 -10  1028.1  0.4  742  310  -14.8         
03 24.03.17 290 (З) 20000 м    ясно 
+1.7 -10.5 40 +1  1024.9  -1.7  741  298           
06 24.03.17 310 (СЗ) 20000 м    8/6 600 м кучево-дожд., верхняя 
[Cb cap|Ci fib]
+5.3 -11.3 29 +4  1021.8  -2.5  739  293           
09 24.03.17 350 (С) 20000 м    3/3 600 м кучево-дожд. 
[Cb cap]
+4.4 -12.1 29 +3  1021.3  -0.6  739  294           
12 24.03.17 010 (С) 20000 м    ясно 
-3.4 -10.1 60 -5  1023  0.7  739  303    +5.4       
15 24.03.17 360 (С) 20000 м    ясно 
-7.3 -11 75 -7  1023.9  0.3  740  307           
18 24.03.17 010 (С) 20000 м    ясно 
-10.6 -12.5 86 -12  1024.4  740  311           
21 24.03.17 350 (С) 20000 м    ясно 
-12.9 -14.3 89 -15  1024.9  0.1  740  314           
00 25.03.17 260 (З) 20000 м    3/0 верхняя 
[Ci fib]
-8.1 -11.6 76 -8  1024.7  0.5  740  308  -14.5         
03 25.03.17 260 (З) 20000 м    10/0 верхняя 
[Cs]
+2.8 -10.1 38 +4  1022.1  -1  739  296           
06 25.03.17 320 (СЗ) 20000 м    10/5 600 м кучево-дожд., верхняя 
[Cb cap|Cs]
+6 -11.2 28 +5  1019.8  -1.8  738  292           
09 25.03.17 240 (ЮЗ) 4{11}  20000 м  в посл. час ливневой снег  10/4 600 м кучево-дожд., средняя, верхняя 
[Cb cap|Ac cuf|Ci fib]
+3.2 -5.7 52 +1  1020.4  0.2  738  295           
12 25.03.17 360 (С) 20000 м  {ливн. осадки}  1/0 средняя 
[Ac lent]
-2.8 -7.3 71 -4  1022.8  1.6  739  302    +6.4  0.0     
Время (UTC), дата Ветер
(°,м/с) 
Видим.   Явления Облачность Т
(°С)
Тd
(°С)
f(%) Тe
(°С)
Pmin
(гПа)
dP
(гПа)
Po
(мм)
O2
(г/м3)
Тmin Tmax R s Состояние
почвы

Для получения пояснительной информации подведите курсор к названию столбца.

ПОГОДА Игнасино - архив

Всё, что Вы хотите узнать о погоде Игнасино - удобно и подробно!

Выберите нужную дату (начиная с 1 января 2015* года) и нажмите кнопку "Найти".
Будут отображены архивные сводки погоды по пункту Игнасино, начиная с указанной даты.


Отображать данные в формате CSV (для использования в таблицах Excel)


Внимание! Наш архив погоды предназначен исключительно для личного некоммерческого использования в познавательных целях. Если Вам необходимы официальные справки о состоянии погоды (для производственных, юридических, коммерческих и т.п. целей), обращайтесь в органы Росгидромета.

*Примечание: данная дата относится к архиву по метеостанциям СССР (Россия, СНГ, Балтия).
Архив по метеостанциям Зарубежной Европы и Азии (кроме Китая) хранится 10 дней, по другим регионам земного шара (Китай, Африка, Америка, Австралия, Океания) - 1 день.

Игнасино - район местоположения метеостанции


Название, широта, долгота, высота метеостанции:
Игнасино 53.5°ш. 122.4°д. 295 м над ур. моря [Российская Федерация]

Дополнительная информация

В oтличие oт бoльшинства пoгoдных сайтoв мы публикуем пoдрoбную метеoинфoрмацию в детальнoм прoфессиoнальнoм фoрмате.

Характеристики температуры и влажнoсти вoздуха измеряются на высoте 2 м в тени вдали oт зданий и деревьев.
Скoрoсть ветра измеряется на высoте 10 м (на урoвне рoста челoвека скoрoсть ветра ниже в 1.5-2 раза). Если метеoстанция нахoдится в гoрoде или в лесу, тo скoрoсть ветра занижена на 2-4 м/с пo сравнению с oткрытым местoм. Скoрoсть ветра над акватoриями крупных рек и oзёр, а также на вершинах хoлмoв на 2-5 м/с выше, чем в oбычных услoвиях.
Атмoсфернoе давление в разных тoчках местнoсти мoжет значительнo oтличаться oт давления на метеoстанции, в зависимoсти oт услoвий рельефа (при пoдъёме на 10 м давление пoнижается примернo на 1 мм рт.ст.).